This is the latest recevied weather packets stored in our database for station/object KK4WXG. If no packets are shown the sender has not sent any weather packets the latest 10 day(s).
| Time | Temp. | Humidity | Pressure | Rain* | Wind** | Luminosity | Snow |
|---|---|---|---|---|---|---|---|
| 1777971260 | 12.22° C | 79% | 1010.1 hPa | 0 mm | - | 0 W/m² | - |
| 1777970958 | 12.78° C | 78% | 1010.1 hPa | 0 mm | - | 0 W/m² | - |
| 1777970656 | 12.78° C | 77% | 1010.3 hPa | 0 mm | - | 0 W/m² | - |
| 1777970354 | 12.78° C | 78% | 1010.1 hPa | 0 mm | - | 0 W/m² | - |
| 1777970051 | 12.78° C | 78% | 1009.9 hPa | 0 mm | - | 0 W/m² | - |
| 1777969747 | 12.78° C | 78% | 1010 hPa | 0 mm | - | 0 W/m² | - |
| 1777969443 | 12.78° C | 78% | 1010 hPa | 0 mm | - | 0 W/m² | - |
| 1777969140 | 12.78° C | 78% | 1010 hPa | 0 mm | - | 0 W/m² | - |
| 1777968837 | 12.78° C | 78% | 1009.8 hPa | 0 mm | - | 0 W/m² | - |
| 1777968533 | 12.78° C | 77% | 1010.2 hPa | 0 mm | - | 0 W/m² | - |
| 1777968229 | 13.33° C | 77% | 1010.1 hPa | 0 mm | - | 0 W/m² | - |
| 1777967925 | 13.33° C | 75% | 1009.9 hPa | 0 mm | - | 0 W/m² | - |
| 1777967622 | 13.89° C | 74% | 1009.8 hPa | 0 mm | - | 0 W/m² | - |
| 1777967319 | 13.89° C | 74% | 1009.9 hPa | 0 mm | - | 0 W/m² | - |
| 1777967017 | 13.89° C | 74% | 1009.9 hPa | 0 mm | - | 0 W/m² | - |
| 1777966714 | 13.89° C | 74% | 1009.7 hPa | 0 mm | - | 0 W/m² | - |
| 1777966412 | 13.89° C | 74% | 1009.7 hPa | 0 mm | - | 0 W/m² | - |
| 1777966108 | 14.44° C | 73% | 1009.8 hPa | 0 mm | - | 0 W/m² | - |
| 1777965804 | 13.89° C | 73% | 1009.9 hPa | 0 mm | - | 0 W/m² | - |
| 1777965500 | 13.89° C | 74% | 1010 hPa | 0 mm | - | 0 W/m² | - |
| 1777965197 | 13.89° C | 74% | 1009.7 hPa | 0 mm | - | 0 W/m² | - |
| 1777964895 | 13.89° C | 74% | 1009.9 hPa | 0 mm | - | 0 W/m² | - |
| 1777964591 | 13.89° C | 74% | 1009.9 hPa | 0 mm | - | 0 W/m² | - |
| 1777964287 | 13.89° C | 74% | 1009.8 hPa | 0 mm | - | 0 W/m² | - |
| 1777963984 | 13.89° C | 74% | 1009.8 hPa | 0 mm | - | 0 W/m² | - |
* Rain latest hour (hover to see other rain measurements)
** Current wind speed in m/s (hover to see current wind gust speed)